Weather History for Pittsfield, MA

Change the Weather History Date:

Saturday, November 9, 2013

  Actual Average Record
Temperature  
Mean Temperature 33 °F 40 °F  
Max Temperature 40 °F 50 °F 69 °F (1938)
Min Temperature 26 °F 31 °F 15 °F (1952)
Degree Days  
Heating Degree Days 32 25  
Month to date heating degree days 217 213  
Since 1 July heating degree days 990 1049  
Cooling Degree Days 0 0  
Month to date cooling degree days 0 0  
Year to date cooling degree days 433 290  
Moisture  
Dew Point 24 °F    
Average Humidity 66    
Maximum Humidity 78    
Minimum Humidity 54    
Precipitation  
Precipitation T in 0.12 in 1.48 in (1943)
Month to date precipitation 0.80 1.18  
Year to date precipitation 34.32 39.63  
Sea Level Pressure  
Sea Level Pressure 30.11 in    
Wind  
Wind Speed 4 mph (SW)    
Max Wind Speed 16 mph    
Max Gust Speed 22 mph    
Visibility 10 miles    
Events Rain    
T = Trace of Precipitation, MM = Missing Value Source: NWS Daily Summary

Daily Weather History Graph

Daily Weather History Graph

Search for Another Location

Airport:

Trip Planner

Search our weather history database for the weather conditions in past years. The results will help you decide how hot, cold, wet, or windy it might be!

Date:

Astronomy

Nov. 09, 2013 Rise Set
Actual Time 6:36 AM EST 4:36 PM EST
Civil Twilight 6:07 AM EST 5:06 PM EST
Nautical Twilight 5:33 AM EST 5:40 PM EST
Astronomical Twilight 5:00 AM EST 6:13 PM EST
Moon 12:10 PM EST (11/9) 11:05 PM EST (11/9)
Length of Visible Light 10h 59m
Length of Day
9h 59m
Waxing Crescent, 44% of the Moon is Illuminated
Nov 9
Waxing Crescent
Nov 10
First Quarter
Nov 17
Full
Nov 25
Last Quarter
Dec 2
New

Hourly Weather History & Observations

Time (EST) Temp. Windchill Dew Point Humidity Pressure Visibility Wind Dir Wind Speed Gust Speed Precip Events Conditions
12:54 AM 30.9 °F 25.2 °F 23.0 °F 72% 30.09 in 10.0 mi Variable 5.8 mph - N/A   Clear
1:54 AM 30.0 °F 24.1 °F 21.9 °F 72% 30.11 in 10.0 mi WNW 5.8 mph - N/A   Clear
2:54 AM 30.0 °F 24.1 °F 21.0 °F 69% 30.12 in 10.0 mi Variable 5.8 mph - N/A   Clear
3:54 AM 28.9 °F 20.4 °F 21.9 °F 75% 30.16 in 10.0 mi West 9.2 mph 16.1 mph N/A   Clear
4:54 AM 28.0 °F 22.8 °F 19.9 °F 72% 30.18 in 10.0 mi West 4.6 mph - N/A   Clear
5:54 AM 27.0 °F - 19.9 °F 75% 30.20 in 10.0 mi Calm Calm - N/A   Clear
6:54 AM 28.0 °F 24.2 °F 19.9 °F 72% 30.21 in 10.0 mi SW 3.5 mph - N/A   Clear
7:54 AM 30.9 °F - 19.9 °F 64% 30.22 in 10.0 mi Calm Calm - N/A   Clear
8:54 AM 33.1 °F 26.9 °F 21.0 °F 61% 30.22 in 10.0 mi West 6.9 mph - N/A   Mostly Cloudy
9:54 AM 36.0 °F 33.3 °F 21.9 °F 57% 30.21 in 10.0 mi Variable 3.5 mph - N/A   Overcast
10:54 AM 36.0 °F 32.1 °F 25.0 °F 64% 30.19 in 10.0 mi West 4.6 mph - N/A   Overcast
11:11 AM 37.4 °F 30.8 °F 26.6 °F 65% 30.16 in 10.0 mi WSW 9.2 mph - N/A   Overcast
11:52 AM 37.4 °F 32.1 °F 26.6 °F 65% 30.14 in 10.0 mi SW 6.9 mph - N/A   Overcast
11:54 AM 37.0 °F 32.4 °F 27.0 °F 67% 30.16 in 10.0 mi Variable 5.8 mph - N/A   Overcast
12:20 PM 37.4 °F 30.8 °F 26.6 °F 65% 30.13 in 10.0 mi West 9.2 mph - N/A   Overcast
12:46 PM 37.4 °F 33.8 °F 26.6 °F 65% 30.12 in 10.0 mi West 4.6 mph - N/A   Overcast
12:54 PM 37.0 °F 33.3 °F 27.0 °F 67% 30.14 in 10.0 mi West 4.6 mph - N/A   Overcast
1:54 PM 37.9 °F 34.4 °F 26.1 °F 62% 30.12 in 10.0 mi Variable 4.6 mph - N/A   Mostly Cloudy
2:54 PM 39.0 °F 35.7 °F 26.1 °F 60% 30.07 in 10.0 mi South 4.6 mph - N/A   Overcast
3:54 PM 37.9 °F - 25.0 °F 60% 30.08 in 10.0 mi Calm Calm - N/A   Clear
4:54 PM 34.0 °F 28.8 °F 27.0 °F 75% 30.08 in 10.0 mi SSE 5.8 mph - N/A   Mostly Cloudy
5:54 PM 37.0 °F - 25.0 °F 62% 30.06 in 10.0 mi Calm Calm - N/A   Overcast
6:54 PM 37.9 °F 34.4 °F 25.0 °F 60% 30.05 in 10.0 mi South 4.6 mph - N/A   Overcast
7:54 PM 37.9 °F 34.4 °F 24.1 °F 57% 30.02 in 10.0 mi Variable 4.6 mph - N/A   Overcast
8:54 PM 37.9 °F - 25.0 °F 60% 30.03 in 10.0 mi Calm Calm - N/A   Overcast
9:54 PM 39.9 °F 34.5 °F 24.1 °F 53% 30.01 in 10.0 mi SSW 8.1 mph - N/A   Overcast
10:54 PM 39.0 °F 36.8 °F 27.0 °F 62% 29.97 in 10.0 mi South 3.5 mph - 0.00 in Rain Light Rain
11:54 PM 39.9 °F 35.8 °F 27.0 °F 60% 29.94 in 10.0 mi South 5.8 mph - 0.00 in   Overcast